This demonstration page uses our WeatherBlox Daily Observations layout. Learn more.

Left ArrowRight Arrow

Hourly Observations for May 31, 2017

Temp ( °F °C ) Dew Point ( °F °C ) Humidity (%) Winds ( mph kmh ) Pressure ( in mb ) Visibility ( mi km ) Precip ( " mm )
12:53 am 00:53 Clear 56 13.3 33 0.6 42 42 ENE 9 15 29.90 1012 10 16 0.00 0.00
1:53 am 01:53 Clear 54 12.2 33 0.6 45 45 ENE 9 15 29.88 1012 10 16 0.00 0.00
2:53 am 02:53 Clear 51 10.6 32 0 48 48 NE 15 24 29.87 1011 10 16 0.00 0.00
3:53 am 03:53 Clear 50 10 32 0 50 50 NE 15 24 29.85 1011 10 16 0.00 0.00
4:53 am 04:53 Clear 49 9.4 32 0 52 52 ENE 15 24 29.84 1011 10 16 0.00 0.00
5:53 am 05:53 Sunny 49 9.4 33 0.6 55 55 ENE 12 19 29.84 1011 10 16 0.00 0.00
6:53 am 06:53 Sunny 52 11.1 34 1.1 50 50 ENE 13 20 29.83 1010 10 16 0.00 0.00
7:53 am 07:53 Sunny 57 13.9 36 2.2 45 45 ENE 12 19 29.82 1010 10 16 0.00 0.00
8:53 am 08:53 Sunny 64 17.8 38 3.3 38 38 ENE 13 20 29.82 1010 10 16 0.00 0.00
9:53 am 09:53 Sunny 72 22.2 41 5 33 33 ENE 10 17 29.80 1009 10 16 0.00 0.00
10:53 am 10:53 Sunny 78 25.6 40 4.4 26 26 E 5 7 29.78 1008 10 16 0.00 0.00
11:53 am 11:53 Sunny 83 28.3 42 5.6 24 24 VRB 3 6 29.76 1008 10 16 0.00 0.00
12:53 pm 12:53 Sunny 86 30 40 4.4 20 20 VRB 7 11 29.75 1007 10 16 0.00 0.00
1:53 pm 13:53 Sunny 86 30 42 5.6 21 21 E 10 17 29.73 1007 10 16 0.00 0.00
2:53 pm 14:53 Sunny 88 31.1 41 5 19 19 E 6 9 29.71 1006 10 16 0.00 0.00
3:53 pm 15:53 Sunny 89 31.7 41 5 19 19 SSE 9 15 29.70 1006 10 16 0.00 0.00
4:53 pm 16:53 Sunny 90 32.2 39 3.9 17 17 E 8 13 29.68 1005 10 16 0.00 0.00
5:53 pm 17:53 Sunny 89 31.7 39 3.9 17 17 SE 6 9 29.67 1005 10 16 0.00 0.00
6:53 pm 18:53 Sunny 88 31.1 41 5 19 19 ESE 12 19 29.65 1004 10 16 0.00 0.00
7:53 pm 19:53 Sunny 82 27.8 47 8.3 29 29 SE 9 15 29.65 1004 10 16 0.00 0.00
8:53 pm 20:53 Sunny 74 23.3 50 10 43 43 ESE 7 11 29.65 1004 10 16 0.00 0.00
9:53 pm 21:53 Mostly Cloudy 72 22.2 45 7.2 38 38 SW 9 15 29.67 1005 10 16 0.00 0.00
10:53 pm 22:53 Clear 74 23.3 45 7.2 36 36 S 10 17 29.65 1004 10 16 0.00 0.00
11:53 pm 23:53 Clear 72 22.2 45 7.2 38 38 S 13 20 29.63 1003 10 16 0.00 0.00

Powered by AerisWeather